Temp_Advection
nan nan nan nan nan nan nan nan nan nan nan nan nan nan nan nan nan nan nan nan nan nan nan nan nan nan nan nan nan nan nan nan nan nan nan nan nan nan nan nan nan nan nan nan nan nan nan nan nan
nan 0 0 -0 -0 -0 -1 0 0 -0 0 0 -0 -1 -1 -0 2 0 -0 -1 0 0 1 2 0 -0 -0 -0 0 0 0 -0 -0 -0 -0 -0 -0 -0 -0 -0 -0 -0 -0 0 -0 -0 0 -0 nan
nan 0 -0 -0 -0 -0 -0 0 0 0 -0 -1 -0 -0 -0 0 1 0 -0 1 0 0 0 0 0 0 -0 0 0 0 0 0 0 0 -0 -0 -0 -0 -0 -0 -0 -0 -0 -0 0 -0 -0 0 nan
nan 0 0 -0 -0 0 0 -0 0 -0 -0 -0 -0 -0 1 1 0 -0 -0 2 0 0 0 -1 0 0 0 0 0 0 0 0 0 -0 0 0 0 0 0 0 0 0 0 -0 -0 -0 -0 -0 nan
nan -0 -0 -0 -0 0 0 0 -0 -0 -0 -0 -0 -0 0 1 0 -0 1 1 0 -0 0 0 1 0 1 0 0 0 -0 -0 -0 -0 0 0 0 0 0 0 0 0 0 0 0 0 -0 -0 nan
nan -0 -0 -0 0 0 0 0 -0 -0 -0 -0 -0 -1 0 0 0 0 1 1 1 -0 -0 2 1 1 1 0 0 0 -0 -0 -0 -0 0 0 0 0 0 0 0 0 0 0 0 0 -0 -0 nan
nan -0 -0 0 -0 -0 0 0 -0 -0 -0 0 -0 -1 0 1 0 0 1 0 0 0 -1 0 1 1 0 0 0 0 -0 -0 -0 -0 0 0 0 0 0 0 0 0 0 0 0 0 -0 -0 nan
nan -0 -0 -0 -0 0 0 0 0 -0 -0 -0 -0 -1 0 0 0 0 0 0 -0 1 -0 -0 0 0 0 0 0 0 0 -0 -0 0 0 0 -0 0 0 0 -0 0 0 -0 -0 0 0 0 nan
nan -0 -0 0 -0 -0 0 -0 0 0 -0 -0 -0 -0 0 0 0 0 0 0 1 0 0 0 -0 0 0 0 0 0 0 0 0 0 0 0 0 0 0 0 -0 -0 0 0 0 -0 0 0 nan
nan -0 -0 -0 0 0 0 0 -0 -0 -0 -0 -0 0 0 0 0 0 -0 0 0 0 1 0 0 -0 0 0 0 0 -0 0 0 0 0 0 0 -0 0 0 0 0 0 0 0 0 0 -0 nan
nan -0 -0 0 0 -0 -0 -0 -0 -0 -0 -0 -0 -0 0 1 0 -0 -0 0 0 1 1 0 0 0 0 0 -0 -0 -0 0 0 0 0 0 0 -0 0 0 0 0 0 0 0 0 0 -0 nan
nan -0 0 0 0 -0 -0 -0 -0 -0 -0 -0 -0 0 1 0 0 -0 1 1 1 1 0 0 0 0 0 -0 -0 -0 -0 0 0 0 0 0 0 0 -0 0 0 0 -0 -0 -0 0 0 -0 nan
nan -0 0 0 0 0 -0 -1 -0 -0 -0 -0 -0 0 0 -0 0 1 1 1 -0 1 0 0 -0 0 0 0 -0 -0 0 0 0 0 0 0 0 0 0 0 0 -0 -0 0 -0 -0 0 0 nan
nan -0 -0 0 -0 -0 -0 0 -0 -0 0 0 -0 0 0 -0 0 1 0 0 1 -1 -0 -0 0 0 0 0 -0 -0 0 0 0 0 0 0 0 0 0 0 -0 -0 -0 -0 -0 -0 0 -0 nan
nan -1 -1 0 0 0 0 -0 -1 -0 0 -0 -0 0 0 0 -0 -0 0 0 0 0 -0 0 1 0 0 0 0 0 0 0 0 0 0 0 0 0 0 0 -0 -0 -0 0 -0 -0 0 0 nan
nan -0 -0 0 0 0 -0 -1 -0 0 0 -0 -0 0 0 0 -0 0 1 -0 1 0 -0 0 -0 -0 1 -0 0 0 0 0 0 0 0 0 0 0 0 0 -0 0 0 -0 0 -0 -0 -0 nan
nan -0 0 0 0 0 -0 -1 -0 0 -0 -0 -0 -0 0 0 0 -0 -0 0 0 -0 -0 0 0 0 0 0 0 0 0 0 0 0 0 0 0 0 0 0 0 0 0 -0 0 0 -0 -0 nan
nan 0 0 0 0 0 -0 -1 -1 1 0 -0 -0 -0 -0 0 0 0 0 0 -0 0 -0 0 -0 0 0 0 0 0 0 0 0 0 0 0 0 0 0 0 0 0 0 -0 0 0 -0 0 nan
nan -0 -1 -1 0 0 -0 -1 -1 0 1 0 -0 -0 -0 -0 -0 0 0 -0 1 1 -0 0 -0 -0 0 -0 -0 -0 0 0 0 0 0 0 0 -0 0 0 0 0 0 0 -0 0 0 -0 nan
nan -0 -1 0 0 -0 -1 -0 -1 0 0 1 0 -0 -0 -0 1 0 0 0 0 -0 0 -0 -0 1 0 -0 0 0 1 1 0 -0 -0 -0 0 0 0 0 0 0 0 -0 -0 -0 -0 -0 nan
nan -1 -0 0 -0 0 -1 -1 0 0 0 0 -0 -0 -1 -0 0 0 0 0 0 -0 -0 0 1 0 -1 0 0 0 -0 -0 -1 -1 -0 -0 -0 0 0 0 0 0 -0 -0 -0 -0 -0 -0 nan
nan 0 1 0 -0 -0 -0 -1 -0 0 1 0 -0 0 -0 0 0 0 0 0 -0 0 -0 0 -0 0 1 1 -0 -1 -1 -1 -1 -0 0 -0 -0 0 0 0 -0 0 -0 0 -0 -0 0 0 nan
nan 0 0 -0 0 -0 -0 -0 -1 0 0 -0 -0 0 -0 0 0 0 0 0 0 0 0 0 0 1 1 -0 -0 0 0 -0 0 1 0 -0 -0 0 -0 -0 -0 -0 0 -0 0 -0 0 0 nan
nan -0 0 0 0 -1 0 -0 -1 -0 -0 -0 -0 -0 -0 0 0 0 0 0 1 -0 0 0 0 0 -0 0 0 0 -0 0 -0 -0 -0 -0 0 -0 -0 -0 -0 -0 -0 -0 0 -0 0 0 nan
nan -0 0 0 -0 0 -0 -1 -2 0 0 -0 -0 -0 -0 0 0 0 0 0 0 -0 0 0 0 -0 -0 0 0 0 0 -0 -0 0 0 0 0 -1 -0 -0 0 0 0 0 0 0 0 0 nan
nan 0 -0 -0 -0 0 -0 -1 -0 0 0 0 0 -0 -0 0 -0 0 0 0 0 0 0 0 0 -0 -0 -0 0 -0 -0 0 0 0 0 0 0 0 0 1 0 0 0 0 0 0 0 0 nan
nan -0 -0 0 0 -0 -1 -0 -1 0 0 -0 -0 -0 0 -0 -0 0 0 0 1 0 0 0 -0 -1 -1 -1 -0 -0 -0 -0 -0 0 0 1 0 1 1 1 1 1 1 0 0 0 0 0 nan
nan -0 0 -0 -0 -1 -0 -0 -0 -0 0 -0 -0 -0 -0 -0 0 -0 0 0 0 0 0 -0 -1 -1 1 -0 0 0 -0 1 1 1 0 0 0 1 1 1 1 0 1 1 0 0 0 0 nan
nan -0 -0 -0 -0 -0 -0 -0 0 0 0 0 -0 0 -0 0 -0 -0 -0 0 0 0 0 0 -0 1 -0 -1 1 -0 1 1 0 0 0 0 0 -0 0 1 0 0 1 0 0 0 0 -0 nan
nan nan nan nan nan nan nan nan nan nan nan nan nan nan nan nan nan nan nan nan nan nan nan nan nan nan nan nan nan nan nan nan nan nan nan nan nan nan nan nan nan nan nan nan nan nan nan nan nan
Wind_Speed
5 3 5 5 5 4 11 8 8 12 9 5 9 10 12 23 9 3 3 14 21 33 36 35 32 29 27 26 24 22 20 17 16 11 7 5 6 6 6 5 4 3 2 1 1 2 2 3 4
6 5 4 3 5 10 11 13 14 12 11 16 16 14 17 20 16 7 2 15 25 33 34 36 33 30 28 26 25 23 21 19 15 9 6 6 6 5 5 4 3 3 2 1 2 3 3 4 4
4 5 3 3 4 11 8 1 5 7 12 15 11 12 11 7 8 5 9 17 27 33 34 35 35 32 30 27 26 23 22 19 15 9 7 7 7 6 6 5 4 3 3 3 3 4 5 6 7
3 2 1 5 12 11 8 8 9 11 14 12 10 13 17 15 9 7 13 20 30 34 33 36 36 33 31 30 26 24 22 18 13 9 8 8 8 7 7 6 6 5 4 5 5 6 8 8 9
3 1 4 6 10 8 9 14 17 15 16 17 14 16 18 15 20 17 12 22 31 35 32 37 36 33 31 29 28 25 22 16 13 10 9 9 8 8 7 6 6 6 6 7 8 9 9 10 10
2 2 4 8 8 6 10 13 16 17 21 17 17 22 24 16 21 16 13 23 30 35 32 36 35 32 32 31 28 25 20 16 13 11 10 9 9 8 7 7 7 7 7 8 9 10 10 10 11
3 3 5 8 10 9 8 6 9 8 10 14 10 15 18 14 17 12 15 26 34 33 33 34 34 31 33 30 27 24 18 15 14 12 11 10 10 9 8 8 8 8 9 10 10 10 11 11 12
2 3 4 5 5 7 3 8 11 13 13 11 12 8 12 10 11 11 17 28 31 35 37 35 31 34 33 30 27 22 18 15 14 13 12 12 11 11 10 9 9 9 9 10 11 11 12 13 13
3 5 7 5 6 3 7 8 9 10 15 16 17 18 19 18 10 22 17 27 32 36 37 34 34 34 34 30 27 21 18 17 15 14 14 13 13 13 12 11 11 10 11 11 11 12 13 13 15
7 5 5 5 7 10 13 15 18 18 20 20 20 17 13 18 12 12 23 29 30 32 35 37 36 37 34 31 27 23 20 18 17 16 16 15 14 14 14 13 12 11 12 13 13 14 15 15 16
5 6 5 12 15 16 19 20 19 20 19 21 21 19 15 19 14 19 27 27 34 32 36 38 39 37 35 31 28 25 22 21 19 18 17 17 16 15 14 14 13 13 13 14 14 15 15 14 15
9 16 18 17 14 14 15 19 19 20 27 22 22 23 23 23 18 25 22 17 30 29 34 38 38 38 35 31 28 25 24 22 21 21 19 18 17 16 16 15 15 14 15 15 15 15 15 15 15
15 16 17 20 21 21 22 24 26 30 28 25 24 23 22 20 19 23 24 22 27 36 32 38 38 38 35 31 29 26 25 23 22 21 20 18 17 17 16 16 15 15 16 15 16 16 15 15 15
5 12 20 22 25 23 21 21 10 15 15 19 21 23 21 19 17 20 24 16 21 24 37 38 38 37 34 33 30 27 25 24 22 21 20 19 17 16 16 16 16 16 16 16 16 16 15 15 14
11 15 17 17 13 7 6 14 15 20 8 12 12 16 22 22 19 20 27 23 19 17 34 46 46 37 36 33 29 28 26 24 22 21 20 19 18 17 16 16 15 16 16 17 17 17 16 15 15
7 8 6 2 4 3 4 19 10 10 7 15 20 15 16 16 15 17 23 29 32 31 21 50 40 39 37 34 30 28 27 25 23 22 21 20 19 17 16 15 15 16 17 17 17 17 16 15 14
5 8 10 11 3 4 6 18 9 12 16 26 22 17 15 15 9 12 26 31 27 30 33 29 39 40 37 33 31 28 27 25 24 23 22 21 20 18 17 16 15 16 17 17 17 17 15 16 14
4 8 8 11 3 11 21 28 24 25 21 24 23 23 19 20 18 13 23 26 22 22 19 31 33 41 38 36 33 30 28 26 26 24 24 22 21 20 18 17 16 17 18 18 18 18 17 15 15
8 12 16 16 14 14 15 24 25 27 23 26 27 26 25 24 15 14 17 28 30 35 26 23 16 45 43 40 36 33 32 31 29 26 24 23 22 21 19 18 17 17 17 17 18 18 17 17 16
13 14 16 13 2 9 19 28 27 14 10 20 24 23 24 24 16 12 15 22 31 38 33 30 21 41 46 43 40 37 35 32 29 27 25 24 23 22 20 19 17 17 19 19 19 19 19 18 18
12 15 15 11 13 10 14 14 7 10 4 1 10 18 20 22 20 16 17 23 28 38 43 42 32 25 47 45 42 39 35 34 32 29 29 28 25 23 21 20 18 18 18 18 19 19 19 18 21
11 6 14 10 7 6 7 7 12 7 12 3 5 12 15 16 16 18 19 21 29 31 35 47 38 34 38 49 47 46 41 38 35 35 33 28 26 25 24 22 20 19 19 19 19 19 19 19 20
5 3 4 5 8 11 4 4 7 7 6 7 7 4 9 8 13 17 19 20 27 32 36 36 38 43 48 53 51 46 40 38 37 37 33 30 30 28 26 24 22 21 20 19 19 20 21 20 21
4 5 2 2 4 6 6 6 6 3 0 1 4 6 3 2 6 14 17 19 21 31 35 34 36 38 42 49 48 47 44 41 40 38 37 34 32 31 29 27 25 23 22 21 20 19 20 21 21
11 7 3 4 4 5 1 5 13 6 6 9 9 8 9 5 5 9 18 21 22 29 33 37 37 34 39 42 50 49 46 46 43 39 38 37 36 34 32 31 29 27 25 23 23 22 22 23 23
21 12 5 6 4 1 3 8 4 2 2 3 6 9 6 1 2 4 11 21 24 29 32 34 36 37 36 36 42 49 47 48 46 43 40 40 39 36 34 32 30 30 28 26 26 25 24 24 23
9 9 6 4 2 4 6 8 14 12 9 8 4 4 10 11 8 8 5 16 24 28 34 37 38 40 40 39 39 42 40 48 49 45 41 40 39 39 38 37 34 32 30 28 28 28 26 25 25
7 12 5 5 6 7 6 7 10 3 3 11 9 11 9 5 8 10 9 6 19 27 30 34 39 41 42 43 44 39 43 50 51 49 44 45 41 41 41 37 37 35 33 31 31 31 29 28 27
7 8 7 3 5 6 6 5 6 9 6 11 9 12 6 2 9 13 7 4 9 21 28 31 34 40 45 46 46 37 40 35 44 50 46 43 42 40 40 39 38 37 38 35 33 33 31 31 30
20 15 19 9 12 5 9 9 3 4 4 5 8 7 2 5 13 10 8 4 5 13 23 27 33 36 38 41 46 44 36 38 34 37 44 44 44 43 42 41 38 38 39 40 37 35 34 32 33
Wind_Direction
7 41 130 145 218 233 256 242 249 249 240 8 321 271 248 239 229 276 269 188 171 174 177 177 176 177 174 173 171 169 164 167 173 167 172 181 176 180 193 200 204 200 187 156 102 88 84 85 77
14 97 109 172 244 238 250 233 246 255 287 304 291 276 255 252 239 272 265 180 177 173 175 177 177 178 177 176 173 169 170 178 172 177 183 181 183 192 195 196 187 182 169 123 95 88 82 81 92
45 123 192 216 241 246 282 273 262 278 290 289 276 260 288 263 255 256 253 191 175 174 177 178 177 179 178 176 172 171 180 176 180 185 186 187 185 188 190 186 177 175 160 137 126 116 112 112 111
68 68 129 243 240 255 260 270 280 289 281 256 281 267 259 268 279 264 259 189 175 176 176 182 179 180 180 175 171 180 179 182 187 192 190 187 184 183 185 181 169 166 155 136 126 119 116 112 112
71 185 223 242 263 253 256 271 276 272 266 263 274 271 262 262 275 278 260 189 179 176 176 180 180 181 175 171 178 184 182 187 191 195 191 185 180 176 174 168 159 152 138 128 122 117 114 114 114
172 240 234 254 258 270 266 268 278 268 265 270 278 266 267 264 269 264 230 191 185 177 175 177 180 179 172 175 182 182 186 188 193 191 188 182 174 166 165 157 147 139 131 124 119 115 113 113 113
242 234 267 271 277 277 268 260 262 276 276 266 300 278 268 273 266 268 212 178 187 179 178 176 176 176 175 182 182 184 188 191 191 187 182 177 169 163 157 150 143 140 132 128 124 118 117 117 116
235 254 244 232 278 286 291 266 260 269 274 291 289 268 267 298 268 250 206 181 187 184 180 176 176 177 182 184 182 186 189 190 189 184 178 171 167 159 153 146 143 142 134 134 129 125 123 120 119
197 247 257 255 255 275 296 280 270 268 277 280 283 277 286 293 233 221 194 190 186 189 182 178 178 179 185 184 184 187 189 189 185 180 174 167 166 159 152 150 147 145 139 136 130 128 124 120 123
225 252 254 251 263 278 286 280 285 283 277 275 277 278 274 284 241 197 221 190 188 183 183 181 182 183 184 185 184 187 188 186 184 181 172 170 165 161 157 153 150 146 143 140 136 131 127 125 128
209 249 280 266 268 278 283 281 279 272 270 266 266 270 273 284 271 231 230 200 196 187 189 188 186 189 188 187 184 187 187 185 182 179 175 170 166 161 158 154 151 148 144 144 140 137 135 135 137
252 255 267 279 275 279 275 285 274 268 266 266 260 265 272 282 275 244 234 213 197 195 192 194 191 190 192 192 190 190 189 188 183 179 175 172 169 164 162 159 156 153 150 151 148 147 143 139 136
243 268 275 274 275 271 278 271 271 270 266 264 262 264 262 274 275 269 240 231 234 207 201 196 194 193 196 193 193 193 191 189 185 179 176 173 171 167 165 162 160 159 157 158 156 152 148 143 139
298 276 279 281 275 278 270 274 268 264 274 259 260 263 265 258 261 256 233 261 259 259 210 203 205 202 200 196 196 193 191 190 185 182 179 175 173 171 167 165 163 162 162 160 159 156 153 148 143
280 291 288 279 275 251 274 258 235 257 264 268 276 274 266 256 253 255 235 221 243 271 231 204 204 200 202 199 196 196 193 190 187 184 182 178 175 172 171 169 167 168 166 165 163 162 158 154 150
271 274 297 110 221 245 228 271 258 223 238 288 292 276 274 270 253 241 231 226 214 216 209 211 201 199 198 200 198 196 194 192 190 186 185 181 179 177 174 174 173 173 172 170 168 167 161 158 155
212 281 273 300 211 275 237 289 275 246 254 283 274 270 267 263 245 229 226 217 201 223 225 204 196 205 200 201 201 199 195 195 194 190 189 185 183 181 178 180 178 178 178 176 176 172 171 166 161
258 268 263 274 283 277 286 275 278 270 263 253 256 266 256 255 251 232 217 211 197 186 213 226 226 208 207 201 201 199 196 198 197 196 194 189 187 186 183 184 182 183 184 181 181 181 174 173 171
274 271 275 280 284 296 277 285 286 284 265 247 250 248 246 244 245 242 208 208 205 194 192 216 235 208 207 202 200 199 199 200 199 198 197 194 192 191 188 189 187 188 190 187 186 185 185 177 175
249 266 276 288 241 294 300 296 294 298 284 247 237 243 245 245 233 217 212 205 204 197 191 198 233 221 210 203 203 203 202 203 202 200 199 199 197 195 194 195 192 192 192 190 194 193 187 191 183
240 251 272 276 316 263 300 286 301 321 297 230 233 240 246 238 226 212 209 203 209 208 211 202 200 223 211 204 204 204 202 201 200 202 204 202 199 199 198 199 199 198 201 199 200 200 202 200 194
266 251 263 285 307 298 358 293 309 322 325 261 218 237 242 237 223 214 212 209 206 212 218 211 201 193 215 206 207 209 210 204 204 207 206 203 202 203 202 202 202 204 206 203 204 206 206 208 209
248 162 218 273 283 310 207 253 273 319 351 36 55 20 231 239 224 216 213 216 216 212 214 222 213 212 210 206 211 211 210 211 209 209 205 204 207 207 205 206 206 208 211 210 210 210 211 212 214
146 164 204 260 269 255 235 226 277 259 114 75 355 17 71 234 226 213 215 218 218 220 221 219 210 213 219 212 215 213 214 212 215 211 207 205 209 210 209 209 210 212 213 216 217 215 219 220 220
199 184 233 228 213 256 69 228 259 253 242 284 300 327 314 274 222 225 211 214 210 218 227 222 219 226 218 221 219 217 218 218 218 217 212 209 209 211 212 213 212 214 217 217 220 220 222 223 224
198 193 212 246 213 183 166 237 256 284 195 256 291 315 329 51 307 281 226 216 220 225 226 230 224 221 220 216 223 218 221 223 222 219 216 218 215 214 214 220 219 219 220 220 222 223 223 225 225
163 215 227 260 192 265 225 257 279 258 250 238 169 118 99 75 48 36 259 219 219 226 225 227 219 218 214 217 219 223 229 227 225 223 220 222 222 223 222 220 222 225 224 222 224 226 225 224 226
212 152 166 215 217 235 223 252 245 268 205 158 143 145 140 82 27 17 19 242 217 221 226 231 228 223 221 223 225 229 229 226 227 227 224 225 222 226 228 227 228 229 226 224 225 227 226 227 227
185 205 219 233 232 239 247 231 196 219 156 167 151 164 164 349 347 337 330 312 227 219 221 229 233 230 226 231 229 233 232 229 228 227 227 229 228 232 234 233 234 233 232 228 228 230 229 230 230
234 236 210 217 199 246 273 244 166 197 221 205 190 208 166 341 343 341 334 292 252 227 217 221 224 229 230 235 231 239 233 238 236 233 237 236 233 233 237 236 237 236 237 235 232 231 234 231 232
Height
1515 1514 1514 1518 1519 1513 1502 1499 1498 1500 1498 1500 1502 1498 1493 1491 1489 1490 1486 1486 1490 1492 1496 1502 1506 1511 1515 1518 1522 1525 1527 1529 1531 1532 1533 1534 1535 1536 1537 1537 1538 1538 1538 1538 1538 1539 1539 1539 1538
1514 1515 1517 1517 1512 1508 1493 1493 1501 1499 1498 1503 1501 1498 1495 1489 1491 1490 1487 1486 1489 1492 1496 1499 1505 1510 1515 1518 1521 1525 1527 1529 1531 1532 1533 1534 1535 1536 1536 1537 1537 1538 1538 1538 1539 1539 1539 1538 1539
1514 1515 1518 1512 1507 1503 1495 1497 1501 1505 1505 1504 1500 1496 1494 1488 1490 1489 1486 1485 1488 1492 1495 1498 1503 1508 1513 1517 1521 1525 1526 1529 1531 1532 1533 1534 1534 1535 1536 1537 1538 1538 1539 1539 1539 1539 1539 1539 1540
1516 1518 1519 1512 1504 1502 1504 1501 1505 1504 1503 1501 1499 1494 1493 1491 1490 1487 1485 1485 1488 1490 1495 1497 1502 1506 1511 1515 1520 1523 1526 1528 1530 1532 1533 1533 1534 1535 1536 1537 1538 1539 1539 1540 1540 1540 1540 1540 1540
1517 1519 1512 1509 1504 1503 1504 1504 1503 1501 1501 1499 1497 1492 1487 1489 1487 1486 1484 1485 1488 1489 1494 1497 1502 1506 1510 1515 1519 1522 1525 1528 1529 1531 1532 1533 1534 1535 1536 1537 1538 1539 1539 1540 1540 1540 1541 1541 1542
1517 1517 1511 1503 1500 1503 1504 1503 1501 1499 1498 1496 1496 1490 1486 1485 1483 1483 1482 1484 1489 1489 1493 1497 1502 1506 1510 1513 1518 1522 1524 1527 1529 1531 1532 1533 1533 1535 1536 1537 1538 1539 1539 1540 1541 1541 1542 1543 1543
1515 1513 1504 1505 1502 1499 1500 1500 1498 1496 1495 1495 1494 1489 1484 1483 1479 1482 1481 1483 1485 1489 1491 1497 1501 1506 1509 1512 1517 1521 1524 1526 1528 1530 1531 1532 1533 1534 1536 1537 1538 1539 1540 1541 1541 1542 1543 1544 1545
1515 1514 1508 1502 1495 1497 1497 1499 1498 1497 1494 1495 1493 1485 1481 1482 1478 1477 1482 1481 1483 1488 1490 1496 1501 1505 1508 1512 1516 1520 1523 1525 1527 1529 1530 1532 1533 1534 1536 1537 1538 1540 1540 1541 1542 1543 1544 1545 1546
1516 1511 1501 1499 1499 1493 1495 1495 1495 1495 1493 1492 1491 1487 1483 1480 1482 1476 1477 1480 1481 1486 1489 1494 1499 1504 1507 1512 1515 1519 1522 1524 1526 1528 1530 1531 1532 1534 1536 1537 1538 1540 1540 1542 1543 1544 1545 1546 1548
1513 1506 1497 1496 1495 1494 1493 1493 1492 1491 1489 1487 1486 1483 1479 1476 1477 1472 1482 1478 1480 1481 1487 1490 1496 1501 1506 1510 1514 1517 1520 1523 1525 1527 1529 1530 1532 1534 1535 1537 1538 1540 1541 1542 1544 1545 1546 1548 1550
1508 1501 1497 1496 1496 1495 1492 1490 1488 1486 1483 1482 1480 1479 1476 1471 1475 1470 1470 1477 1479 1480 1485 1489 1494 1500 1504 1508 1512 1515 1518 1521 1523 1526 1527 1529 1531 1533 1535 1536 1538 1540 1541 1543 1544 1546 1548 1549 1551
1505 1499 1498 1496 1495 1493 1489 1487 1484 1482 1476 1475 1475 1474 1473 1466 1467 1464 1466 1470 1480 1479 1485 1489 1493 1498 1502 1506 1510 1513 1516 1519 1521 1524 1526 1528 1529 1531 1533 1535 1537 1539 1541 1543 1545 1547 1548 1550 1552
1501 1497 1495 1493 1491 1490 1487 1483 1479 1473 1471 1471 1470 1470 1469 1462 1458 1454 1460 1458 1482 1479 1482 1487 1491 1496 1500 1504 1508 1511 1514 1518 1520 1522 1525 1526 1529 1530 1532 1534 1537 1539 1541 1543 1544 1547 1548 1550 1552
1497 1496 1492 1489 1485 1484 1481 1476 1477 1466 1466 1464 1465 1463 1465 1463 1459 1456 1459 1456 1461 1477 1483 1486 1490 1494 1499 1502 1506 1509 1512 1515 1518 1520 1523 1525 1527 1529 1531 1533 1536 1538 1541 1542 1545 1546 1549 1550 1552
1498 1493 1486 1480 1478 1478 1478 1469 1465 1463 1463 1460 1458 1459 1457 1461 1462 1453 1452 1455 1459 1465 1477 1480 1488 1492 1497 1500 1504 1507 1510 1513 1516 1518 1521 1523 1526 1528 1530 1532 1535 1538 1540 1542 1544 1546 1548 1550 1552
1495 1491 1482 1474 1477 1474 1477 1455 1455 1460 1460 1456 1453 1453 1451 1450 1451 1450 1450 1451 1459 1471 1473 1472 1481 1489 1492 1498 1501 1505 1508 1511 1514 1516 1519 1521 1523 1527 1529 1531 1533 1536 1539 1541 1543 1545 1548 1550 1552
1490 1479 1477 1473 1474 1474 1472 1454 1452 1456 1455 1451 1449 1448 1448 1445 1447 1447 1446 1452 1461 1466 1471 1466 1479 1487 1490 1495 1499 1502 1506 1510 1512 1514 1517 1519 1521 1524 1527 1530 1532 1535 1538 1540 1542 1544 1546 1548 1551
1476 1480 1473 1477 1471 1471 1464 1448 1443 1445 1447 1444 1443 1441 1442 1440 1442 1444 1445 1447 1454 1459 1465 1469 1477 1483 1486 1491 1496 1499 1503 1507 1510 1512 1514 1516 1519 1522 1525 1528 1531 1534 1536 1538 1541 1543 1545 1547 1550
1482 1481 1476 1468 1468 1470 1455 1443 1433 1431 1434 1433 1434 1435 1435 1434 1437 1436 1441 1445 1450 1458 1455 1466 1470 1472 1481 1486 1491 1495 1498 1502 1506 1509 1512 1514 1517 1520 1522 1526 1529 1532 1535 1536 1539 1541 1543 1545 1549
1482 1480 1469 1464 1469 1469 1449 1434 1421 1419 1419 1420 1423 1425 1425 1425 1430 1433 1434 1437 1442 1444 1449 1458 1468 1470 1473 1481 1488 1491 1494 1499 1503 1506 1509 1512 1514 1517 1520 1524 1527 1529 1533 1533 1536 1539 1540 1543 1546
1478 1475 1467 1472 1467 1461 1456 1418 1413 1412 1417 1417 1418 1420 1421 1423 1427 1430 1432 1434 1438 1442 1446 1450 1457 1465 1461 1476 1483 1486 1490 1494 1498 1502 1504 1507 1510 1514 1518 1521 1524 1527 1530 1531 1534 1536 1538 1540 1543
1473 1469 1473 1475 1474 1462 1461 1435 1409 1410 1409 1410 1412 1413 1415 1417 1423 1427 1430 1432 1435 1439 1445 1449 1453 1455 1458 1471 1477 1479 1484 1487 1492 1495 1499 1503 1507 1510 1514 1518 1521 1524 1527 1528 1531 1533 1535 1537 1540
1471 1474 1474 1475 1473 1473 1455 1458 1411 1409 1404 1408 1409 1410 1411 1414 1418 1421 1425 1428 1431 1435 1439 1443 1450 1456 1460 1464 1468 1474 1479 1485 1488 1491 1495 1498 1502 1506 1510 1514 1517 1520 1524 1526 1527 1529 1532 1534 1536
1471 1474 1475 1476 1476 1469 1441 1449 1415 1404 1406 1407 1408 1410 1413 1414 1415 1419 1423 1426 1428 1431 1434 1437 1444 1448 1452 1458 1462 1466 1472 1478 1482 1485 1488 1492 1497 1501 1505 1509 1512 1516 1519 1522 1524 1525 1528 1531 1533
1470 1468 1469 1470 1477 1448 1466 1458 1412 1405 1408 1408 1408 1409 1409 1411 1413 1415 1418 1422 1425 1427 1431 1433 1438 1442 1447 1451 1456 1461 1467 1472 1475 1480 1483 1487 1490 1495 1499 1502 1506 1510 1514 1516 1519 1520 1523 1525 1528
1458 1459 1455 1450 1449 1437 1464 1441 1407 1406 1409 1409 1410 1409 1407 1407 1409 1409 1412 1418 1420 1420 1425 1427 1431 1436 1440 1444 1449 1454 1461 1467 1470 1473 1477 1482 1485 1489 1494 1498 1502 1505 1508 1511 1514 1515 1517 1520 1523
1457 1460 1453 1452 1459 1452 1425 1419 1408 1401 1405 1407 1409 1410 1409 1409 1409 1407 1408 1411 1417 1417 1418 1422 1426 1432 1435 1441 1445 1450 1455 1460 1463 1467 1471 1476 1480 1484 1489 1491 1496 1500 1503 1506 1509 1511 1512 1514 1517
1446 1443 1456 1454 1450 1440 1421 1422 1409 1402 1402 1404 1408 1409 1410 1410 1411 1410 1408 1408 1411 1416 1416 1418 1421 1425 1429 1434 1438 1442 1447 1452 1455 1460 1462 1468 1472 1476 1482 1486 1491 1494 1498 1501 1503 1506 1507 1509 1511
1447 1444 1440 1435 1430 1419 1412 1405 1399 1402 1403 1403 1406 1408 1410 1410 1410 1409 1408 1406 1405 1411 1413 1414 1418 1421 1423 1427 1432 1435 1439 1444 1447 1451 1455 1461 1464 1470 1474 1480 1485 1488 1493 1495 1497 1501 1502 1503 1505
1430 1427 1427 1422 1422 1425 1415 1400 1396 1398 1402 1405 1406 1407 1409 1409 1408 1406 1405 1404 1403 1403 1406 1408 1411 1415 1417 1420 1423 1426 1432 1437 1439 1443 1448 1453 1456 1460 1467 1471 1477 1481 1486 1490 1491 1494 1497 1498 1501